Satellite-Ground Cal/Val Site Overpasses Predictions

Prediction of Satellite NPP Overpassing Cal/Val Site: Antarctic Dome C

Ground Cal/Val Site Location: Latitude: -75.10, Longitude: 123.35; Satellite-Ground Site NADIR distance within 100 km.

Table of predicted overpasses for the next 14.0 days since TLE Epoch: 8/27/2014
Interval Starting Time Ending Time Minimum Distance Time Minimum Distance (km)
1 08/28/2014 14:56:43 08/28/2014 14:57:12 08/28/2014 14:56:58 9.87
2 08/30/2014 07:39:36 08/30/2014 07:40:05 08/30/2014 07:39:50 5.60
3 09/02/2014 15:03:09 09/02/2014 15:03:37 09/02/2014 15:03:23 26.89
4 09/03/2014 14:44:27 09/03/2014 14:44:44 09/03/2014 14:44:36 80.09
5 09/04/2014 07:46:02 09/04/2014 07:46:30 09/04/2014 07:46:16 31.54
6 09/05/2014 07:27:19 09/05/2014 07:27:37 09/05/2014 07:27:28 78.41
7 09/07/2014 15:09:37 09/07/2014 15:09:59 09/07/2014 15:09:48 64.22
8 09/08/2014 14:50:48 09/08/2014 14:51:14 09/08/2014 14:51:01 44.93
9 09/09/2014 07:52:29 09/09/2014 07:52:51 09/09/2014 07:52:40 66.99
